Home   Weather   Plovdiv   Past weeks

Flag for Bulgaria Past Weather in Plovdiv, Bulgaria — Yesterday and Last 2 Weeks

Now
57 °F

Refreshingly cool.


Feels Like: 53 °F
Forecast: 34 / 61 °F
Wind: 23 mph from West

Location: Plovdiv Airport

Current Time: Dec 10, 2016 at 10:56:07 am

Latest Report: Dec 10, 2016 at 10:30 am


Visibility: N/A

Pressure: 30.21 "Hg

Humidity: 33%

Dew Point: 28 °F

Location of PlovdivLocation

Past Weather in Plovdiv — Graph

°F

Plovdiv Temperature Yesterday

Maximum temperature yesterday: 66 °F (at 1:00 pm)
Minimum temperature yesterday: 25 °F (at 12:00 am)
Average temperature yesterday: 46 °F

High & Low Weather Summary for the Past Weeks

 TemperatureHumidityPressure
High66 °F (Dec 9, 1:00 pm)100% (Nov 25, 9:00 am)30.77 "Hg (Nov 25, 9:00 am)
Low19 °F (Dec 5, 7:30 am)20% (Dec 9, 10:00 pm)29.68 "Hg (Dec 2, 1:00 pm)
Average37 °F73%30.22 "Hg
* Reported Nov 25 9:00 am — Dec 10 9:30 am, Plovdiv, Weather by CustomWeather, © 2016

Note: Actual official high and low records may vary slightly from our data, if they occured in-between our weather recording intervals... More about our weather records

Advertising

Plovdiv Weather History for the Previous 24 Hours

Scroll right to see more
 ConditionsComfort  
Time TempWeatherWind HumidityBarometerVisibility
9:30 am
Sat, Dec 10
55 °FRefreshingly cool.21 mph31%30.21 "HgN/A
9:00 am54 °FCool.22 mph30%30.21 "HgN/A
8:30 am54 °FCool.21 mph30%30.18 "HgN/A
8:00 am52 °FCool.14 mph35%30.18 "HgN/A
7:30 am48 °FCool.16 mph43%30.18 "HgN/A
7:00 am50 °FCool.18 mph40%30.18 "HgN/A
6:30 am48 °FCool.14 mph37%30.18 "HgN/A
6:00 am46 °FCool.15 mph40%30.18 "HgN/A
5:30 am48 °FCool.16 mph34%30.18 "HgN/A
5:00 am48 °FCool.17 mph32%30.18 "HgN/A
4:30 am48 °FCool.15 mph32%30.18 "HgN/A
4:00 am50 °FCool.17 mph28%30.21 "HgN/A
3:30 am46 °FCool.20 mph40%30.21 "HgN/A
3:00 am48 °FCool.18 mph37%30.21 "HgN/A
2:30 am48 °FCool.21 mph32%30.21 "HgN/A
2:00 am50 °FCool.17 mph30%30.21 "HgN/A
1:30 am50 °FCool.20 mph32%30.21 "HgN/A
1:00 am48 °FCool.15 mph34%30.21 "HgN/A
12:30 am52 °FCool.20 mph30%30.21 "HgN/A
12:00 am48 °FCool.21 mph40%30.21 "HgN/A
11:30 pm
Fri, Dec 9
50 °FCool.17 mph32%30.21 "HgN/A
11:00 pm52 °FCool.16 mph26%30.21 "HgN/A
10:30 pm55 °FRefreshingly cool.16 mph21%30.24 "HgN/A
10:00 pm57 °FRefreshingly cool.21 mph20%30.21 "HgN/A
9:30 pm59 °FRefreshingly cool.20 mph21%30.21 "HgN/A
9:00 pm55 °FRefreshingly cool.18 mph24%30.21 "HgN/A
8:30 pm59 °FRefreshingly cool.23 mph23%30.21 "HgN/A
8:00 pm59 °FRefreshingly cool.23 mph25%30.21 "HgN/A
7:30 pm57 °FRefreshingly cool.14 mph29%30.21 "HgN/A
7:00 pm57 °FRefreshingly cool.15 mph29%30.21 "HgN/A
6:30 pm54 °FCool.12 mph35%30.21 "HgN/A
6:00 pm55 °FRefreshingly cool.9 mph31%30.21 "HgN/A
5:30 pm57 °FPassing clouds.14 mph31%30.21 "HgN/A
5:00 pm59 °FRefreshingly cool.14 mph31%30.21 "HgN/A
4:30 pm63 °FMild.20 mph27%30.21 "HgN/A
4:00 pm63 °FMild.20 mph25%30.21 "HgN/A
3:30 pm64 °FMild.21 mph26%30.21 "HgN/A
3:00 pm66 °FMild.21 mph22%30.21 "HgN/A
2:30 pm66 °FMild.22 mph26%30.21 "HgN/A
2:00 pm66 °FMild.21 mph26%30.21 "HgN/A
1:30 pm66 °FMild.18 mph24%30.21 "HgN/A
1:00 pm66 °FMild.20 mph22%30.24 "HgN/A
12:30 pm63 °FMild.6 mph27%30.24 "HgN/A
12:00 pm55 °FRefreshingly cool.3 mph38%30.27 "HgN/A
11:30 am54 °FCool.5 mph41%30.27 "HgN/A
11:00 am52 °FCool.3 mph41%30.30 "HgN/A
10:30 am46 °FCool.2 mph50%30.30 "HgN/A
10:00 am41 °FQuite cool.3 mph70%30.30 "HgN/A
Weather by CustomWeather, © 2016

See weather overviewHow to use our weather pages